Regional Weather Roundup
Issued by NWS

Home | Current Version | Previous Version | Graphics & Text | Print | Product List | Glossary On
Versions: 1 2 3 4 5 6 7 8 9 10 11 12 13 14 15 16 17 18 19 20 21 22 23 24 25 26 27 28 29 30 31 32 33 34 35 36 37 38 39 40 41 42 43 44 45 46 47 48 49 50
000
ASUS45 KCYS 111210
RWRWY

WYOMING REGIONAL WEATHER ROUNDUP
NATIONAL WEATHER SERVICE CHEYENNE WY
600 AM MDT FRI JUL 11 2014

NOTE:  "FAIR" INDICATES FEW OR NO CLOUDS BELOW 12,000 FEET
WITH NO SIGNIFICANT WEATHER AND/OR OBSTRUCTIONS TO VISIBILITY.

WYZ001-111300-
YELLOWSTONE NATIONAL PARK

CITY           SKY/WX    TMP DP  RH WIND       PRES   REMARKS
LK YELLOWSTONE   N/A     43  41  93 CALM      30.31R
6HR MIN TEMP:  42; 6HR MAX TEMP:  50;

W YELLOWSTONE  NOT AVBL

$$
WYZ002>013-054>058-071-098>099-111300-
NORTHERN WYOMING

CITY           SKY/WX    TMP DP  RH WIND       PRES   REMARKS
JACKSON        PTCLDY    46  45  93 N6        30.21S
CODY           PTCLDY    64  50  59 SW9       30.05S
GREYBULL       PTCLDY    60  55  83 W3        30.00R
6HR MIN TEMP:  60; 6HR MAX TEMP:  70;

WORLAND        MOCLDY    63  53  70 SW3       30.00S
6HR MIN TEMP:  62; 6HR MAX TEMP:  70;

SHERIDAN       PTCLDY    56  52  86 CALM      29.99R
6HR MIN TEMP:  55; 6HR MAX TEMP:  63;

BUFFALO        MOCLDY    64  50  60 W7        30.05S
6HR MIN TEMP:  63; 6HR MAX TEMP:  68;

GILLETTE       PTCLDY    59  55  87 S3        30.01R
6HR MIN TEMP:  58; 6HR MAX TEMP:  71;

HULETT         FAIR      61  55  82 MISG      30.03
NEWCASTLE      FAIR      61  54  77 CALM      30.03

$$
WYZ014>020-022>026-101>103-111300-
CENTRAL WYOMING

CITY           SKY/WX    TMP DP  RH WIND       PRES   REMARKS
BIG PINEY      MOCLDY    50  46  86 NE3       30.25R
6HR MIN TEMP:  50; 6HR MAX TEMP:  61;

PINEDALE       MOSUNNY   48  48 100 W6        30.26R
DUBOIS         FAIR      54  45  71 W13       30.24R
LANDER         MOCLDY    62  53  72 E3        30.10R
6HR MIN TEMP:  62; 6HR MAX TEMP:  70;

RIVERTON       MOCLDY    64  52  64 W9        30.11R
6HR MIN TEMP:  62; 6HR MAX TEMP:  70;

CASPER         CLOUDY    66  53  63 SW10      30.10R
6HR MIN TEMP:  59; 6HR MAX TEMP:  67;

DOUGLAS        MOCLDY    63  61  93 CALM      30.08S
6HR MIN TEMP:  63; 6HR MAX TEMP:  67;


$$
WYZ021-027>030-104>119-111300-
SOUTHERN WYOMING

CITY           SKY/WX    TMP DP  RH WIND       PRES   REMARKS
EVANSTON       CLOUDY    57  53  86 SE7       30.23S
6HR MIN TEMP:  56; 6HR MAX TEMP:  58; 6HR PCP:  0.01;

KEMMERER       CLOUDY    55  50  82 NW8       30.26R
FORT BRIDGER   CLOUDY    59  55  84 W8        30.26R
ROCK SPRINGS   MOCLDY    60  52  74 SW3       30.23S
6HR MIN TEMP:  59; 6HR MAX TEMP:  63; 6HR PCP: TRACE;

DIXON          FAIR      55  53  92 CALM      30.26R
RAWLINS        MOCLDY    61  52  72 W12       30.22R
6HR MIN TEMP:  59; 6HR MAX TEMP:  62;

SARATOGA       FAIR      59  52  77 S3        30.25R
LARAMIE        CLOUDY    60  50  69 SW10      30.23S
6HR MIN TEMP:  54; 6HR MAX TEMP:  60;

CHEYENNE       MOCLDY    66  52  60 S9G24     30.17R
6HR MIN TEMP:  60; 6HR MAX TEMP:  67; 6HR PCP: TRACE;

TORRINGTON     CLOUDY    64  62  93 SE6       30.03S
6HR MIN TEMP:  64; 6HR MAX TEMP:  67; 6HR PCP:  0.01;


$$


USA.gov is the U.S. government's official web portal to all federal, state and local government web resources and services.